Volver al catálogo

STARLINK-35599

ActivoComunicacionesVLEO
NORAD 66102·PAYLOAD·🇺🇸 United States

Lanzado Oct 19, 2025 desde Vandenberg Space Force Base

Loading…

Próximos Pases (próximas 24 horas)

TLE

ActualizadoSource: CelesTrak SupGP

Época: Sep 14, 2026, 21:26 UTC

1 66102C 25236S   26257.89354167  .00014478  00000+0  42799-3 0  2572
2 66102  53.1589 301.6199 0001170  84.5321 172.4132 15.34367150    15

Sigue STARLINK-35599 en tiempo real con AllMySat

Download on the App Store